Погода в Урагах

Россия / Республика Дагестан     42°04′04″N   47°34′09″E
темп.,
°C
ветер,
м/с
пор.,
м/с
влажн.,
%
обл.,
%
осадки,
мм/ч
давл.,
гПа
погр.,
м
17 мая, пн
пн1700:00+8юз54405 0.0 101346
03:00+9юз553738 0.0 101246
06:00+12ююз555189 0.0 101178
09:00+20зюз47272 0.0 10081886
12:00+21зюз68260 0.0 10082675
15:00+21з462541 0.0 10072509
18:00+18юз1141100 0.0 100611
21:00+13зюз4652100 0.0 1010136
18 мая, вт
вт1800:00+13ююз444648 0.1 100852
03:00+10юз545438 0.1 100848
06:00+12юз11600 0.1 100864
09:00+16св344847 0.1 10081692
12:00+15св446145 1.6 10091160
15:00+12св437965 4.3 1011290
18:00+10всв339352 2.2 1013170
21:00+8ююв119337 2.3 101583
19 мая, ср
ср1900:00+7юз22750 0.0 101414
03:00+6юз33690 0.0 101322
06:00+9юз33660 0.0 101275
09:00+17ююз16340 0.0 10081745
12:00+19ссв35463 0.0 10081697
15:00+17св43635 0.9 1009728
18:00+12св339038 1.8 1013183
21:00+9в229694 2.1 1016266
20 мая, чт
чт2000:00+8в2296100 0.1 101638
03:00+8всв2299100 0.1 1017174
06:00+8в229573 0.1 1018244
09:00+11св438475 0.1 1017357
12:00+13св427238 0.1 1016342
15:00+15св426220 0.1 1015346
18:00+12всв22795 0.0 1017102
21:00+10юз43590 0.0 101929
21 мая, пт
пт2100:00+10юз43440 0.0 101836
03:00+11юз33440 0.0 101821
06:00+14юз33560 0.0 101747
09:00+22ююз02300 0.0 10151619
12:00+24всв13314 0.0 10132436
15:00+23всв23340 0.0 10142133
18:00+19вюв11555 0.0 101522
21:00+14юз44380 0.0 101834